Resultats 25Km 2015

POSICIÓ DORSAL ATLETA TEMPS
1 15 JUAN NAVARRO MORENO 02:31:24
2 74 LLUIS CORBERA 02:34:07
3 148 ALEIX  CUNILLERA CAPSIR 02:34:55
4 119 CARLOS RAMÍREZ MARTÍNEZ 02:38:13
5 227 GENÍS CALVES CANUDAS 02:39:40
6 178 EDU LAHOR SOLER 02:41:47
7 72 GUILLEM  CABRERA MONTAÑÀ 02:41:57
8 170 ERNEST PARCERISA ROSELL 02:42:47
9 136 CARLOS HERRERAS 02:43:19
10 181 FRANCESC FERRER PÉREZ 02:43:34
11 228 NÚRIA  PICAS ALBETS 02:44:22
12 4 JORDI GRANELL DÍAZ 02:44:52
13 1 JOAN FREIXA MARCELÓ 02:45:09
14 188 JOSEP GRAS VIVES 02:45:55
15 221 ROGER  CARTES GODOY 02:49:11
16 99 RAMON ANCHO GARCÍA 02:49:19
17 154 XAVI  VILA CASTAÑE 02:49:28
18 147 JOSEP VILALTA BOIXADER 02:50:27
19 226 ROSA  VALLS TIÓ 02:50:29
20 17 MARC  GUTÉS LOPEZ 02:50:34
21 190 JORDI  BAYONA SIVILA 02:50:57
22 223 AITOR  FONTANES CÁCERES 02:51:27
23 27 JORDI  MORAGUES NADAL 02:51:29
24 139 CARLES VILÀ VILA 02:52:57
25 215 ROGER MOLIST PLADEVALL 02:53:40
26 10 RAMON CARBONELL ISANT 02:54:04
27 183 NACHO TRINIDAD RICO 02:54:22
28 138 MARC NAVARRO BORRAS 02:55:43
29 9 MIGUEL LOZANO SERRANO 02:56:28
30 11 GERARD  ARTÉS MONTES 02:56:49
31 197 SERGI CASES PASTOR 02:57:13
32 67 LUIS MARTINEZ FERNANDEZ 02:58:25
33 42 DAVID PLANES GENÉ 02:58:38
34 210 MARC TORRAS GRAELLS 02:59:05
35 6 XAVIER MENENDEZ OLCINA 02:59:10
36 134 RAMON  BAJONA CASAS 02:59:14
37 167 CHRISTIAN GARCIA VALLS 02:59:45
38 214 EFREM LLOBET GARCIA 02:59:56
39 135 LLUÍS VILÀ MUMBRÚ 03:00:06
40 54 DANIEL  BOLAÑOS CAPARRÓS 03:00:25
41 193 ALBERT SILVA SAIZ 03:01:05
42 199 DUDI PÉREZ PUJOL 03:01:44
43 192 JOAN MIQUEL VACAS CUBILLAS 03:02:16
44 218 JAUME MAYOR MARTINEZ 03:02:38
45 133 XAVI GONZALO PUIGBÒ 03:03:07
46 200 CARLES VILLEGAS FORN 03:05:19
47 151 PEP (PEPILLO) GARCIA MARTINEZ 03:06:32
48 35 XAVI BENAIGES JORDAN 03:06:42
49 80 ERIC TORT AYMERICH 03:06:55
50 124 ALBERT MIR SEGALÀ 03:07:14
51 129 RUBEN GARI ALLUE 03:07:21
52 116 JOAN ORRIOLS BADIA 03:07:28
53 180 LLORENÇ SANTMIQUEL ARGEMÍ 03:07:52
54 111 PAU SERRA MORALES 03:07:59
55 220 CARMELO COLACIOS GAÑÁN 03:09:14
56 105 PAU ORIOL SALVANS 03:09:41
57 102 MANOLO GALLEGO FERNÁNDEZ 03:09:48
58 194 JOSE MANUEL ACEVEDO FERNANDEZ 03:10:30
59 47 GERARD TORRES ROVIRA 03:11:22
60 18 LADIS VELASCO ALCANYÍS 03:11:51
61 175 CLIMENT CABANAS LUCAYA 03:13:02
62 202 CARLES SALVADOR ARIS 03:13:42
63 93 JORDI PARETAS 03:14:04
64 198 PEPE SALINAS 03:14:28
65 158 SERGI HERNANDEZ MARTÍN 03:14:37
66 12 SERGIO FERNÁNDEZ PICÓ 03:14:39
67 217 XAVI SÁNCHEZ NAVARRO 03:15:24
68 106 MIGUEL ÁNGEL CANO MARCOS 03:15:37
69 79 JUANJO CONSTANS VALLEJO 03:15:44
70 132 AGUSTÍ BARRERA COROMINAS 03:15:44
71 58 XAVIER VILÀ VERNIS 03:16:08
72 128 DANIEL MASSÓ VALLÉS 03:16:13
73 137 JORDI DORCA TARRUELLA 03:16:31
74 196 IGNASI UBACH TORRAS 03:16:32
75 162 DAVID FABREGAS ALVAREZ 03:16:33
76 24 JOSE ANGEL  SANCHEZ JODAR 03:16:59
77 179 MARTÍ COMELLAS SERRA 03:17:09
78 118 ORIOL (PEIPI) CENDRA PEYPOCH 03:17:30
79 71 DANI CARBONELL MERINO 03:17:47
80 205 ALEX CASELLAS ORTIZ 03:18:39
81 169 FRANCESC SANJUAN 03:19:33
82 209 DAVID SÁNCHEZ ORTIZ 03:19:36
83 187 XAVIER CAPDEVILA CARRERA 03:20:13
84 86 JOSEP PLANA ROTXES 03:20:36
85 195 XAVIER OLIVERA MILLAN 03:20:42
86 208 VANESA  CHIRVECHES DOMINGUEZ 03:20:50
87 110 CARLES COROMINAS PAJARES 03:20:54
88 146 ANGEL LOPEZ CARRILLO 03:21:10
89 22 MIQUEL FERNANDEZ MARTINEZ 03:22:35
90 165 TON COLOM I MASSANA 03:22:53
91 82 MATEU ESPASA SOLEY 03:23:39
92 77 RAUL VILLAFAÑE 03:24:16
93 182 CARLES NUÑEZ PEREZ 03:24:19
94 189 DANI CAMARERO MAYOR 03:24:28
95 90 JORDI GRAU 03:24:51
96 172 SERGIO CASADO GONZALEZ 03:24:55
97 153 MARTI SEUBA MACIA 03:25:03
98 130 JORDI REIG FORNELL 03:25:05
99 166 DAVID  DOMÍNGUEZ TURIGAS 03:25:24
100 73 FERRAN VILA CASALS 03:25:57
101 100 ORESTES FONT MIÑARRO 03:26:04
102 152 XAVIER OLIVA TRAVÉ 03:26:06
103 201 DANI GUERRERO BADENAS 03:26:40
104 184 XAVI COLOMÉ ORRIT 03:26:59
105 70 ALESSANDRO FEA 03:27:12
106 63 RUBEN RUIZ GARCIA 03:27:38
107 53 IVAN ESTRAGUES HERRERA 03:27:39
108 13 OSCAR CAZORLA QUIROGA 03:28:01
109 2 JOAQUIM ANGLES TALLADA 03:28:26
110 168 JORDI MIRO MOYA 03:28:46
111 157 JOAN LLORDÉS VALERO 03:29:13
112 87 JOSEP JOAQUIM GÜELL TRIGUEROS 03:29:27
113 126 JORDI GARCIA PACHECO 03:30:18
114 203 ALEIX SIMARRO GENESCÀ 03:30:20
115 144 ALEX CAÑETE RÍOS 03:31:12
116 163 GOMEZ GONZALEZ CARLOS 03:32:12
117 34 ERIK PRAT MEMBRIVE 03:33:56
118 76 PLACIDO ABELEDO  SANCHEZ 03:34:27
119 191 ABEL GARCIA MARIN 03:34:38
120 88 JOSÉ MARTÍNEZ FERNÁNDEZ 03:34:42
121 65 IVÁN LAFUENTE MARTÍNEZ 03:34:55
122 69 DAVID RODRÍGUEZ MAGALLÓN 03:36:59
123 52 JAUME MERCADER GÓMEZ 03:37:03
124 23 XAVIER PALAU TOMAS 03:37:34
125 20 RICARD VILARDEBÓ LABORDA 03:38:00
126 39 XAVI CALVO MARTIN 03:38:11
127 25 OLIVER GALLEGO NAJAR 03:38:22
128 161 MARCELO CORREAS SANAHUJA 03:38:57
129 7 ANTONI HERNÁNDEZ CASAHUGA 03:40:31
130 123 MIQUEL SAUS COMA 03:40:47
131 156 JORDI HERNANDO GUITART 03:41:06
132 98 EDUARDO  MENDEZ MENDOZA 03:41:23
133 113 JUAN DE DIOS  CABANILLAS GARCIA 03:41:55
134 211 XAVIER VICENTE ALEMANY 03:42:00
135 92 TONI LOZANO AYALA 03:42:05
136 97 FERRAN RAMON CAMÍ 03:42:35
137 164 CALDERON CAMPOS EVA 03:42:42
138 8 FRANCESC XAVIER MIQUEL I CASTAÑER 03:42:51
139 101 FRAN NAVARRO 03:43:24
140 108 XAVIER MORA ORTEGA 03:44:34
141 95 JÉSSICA ARRIBAS ARRANZ 03:44:38
142 49 OCTAVI DELGADO PADILLA 03:44:47
143 60 CARME  AGUILAR FERNANDEZ 03:45:18
144 109 RUBÉN DOMÍNGUEZ OBERST 03:46:27
145 14 ANDREU RUBIO BAUZA 03:46:47
146 207 HECTOR DAUSSÀ PASTOR 03:47:01
147 44 CARLES FERRER 03:47:56
148 115 FENANDO  FREIJO ESPIN 03:48:43
149 66 NATTY IRAHETA GALLEGOS 03:49:07
150 64 ARNAU SEGURA ANDUCAS 03:49:12
151 117 MIGUEL ANGEL  HERNANDEZ ARTEAGA 03:49:25
152 174 LAURA FORNIELES RUIZ 03:49:31
153 61 SANTI MATEO LANZA 03:51:28
154 94 ADRIÀ RUIZ BIELSA 03:52:12
155 140 DANIEL BLANCO TEIJELO 03:55:48
156 21 ANA REBOLLO BLASCO 03:56:31
157 56 FCO GODOY CARO 03:56:35
158 38 JOSEP MARIA SUADES ROJAS 03:57:00
159 3 DAVID RÀBAGO SÀNCHEZ 03:58:11
160 112 MARIO ARAGÓN MOYA 03:58:15
161 120 SERGI COMELLAS MATÓ 03:58:20
162 43 RAQUEL GARCIA LORENTE 03:59:55
163 224 MARC ARQUE 04:01:00
164 83 CARSTEN PETER 04:01:12
165 149 JOSEP LLUIS BRASCÓ DÍAZ 04:02:35
166 37 JOSEP Mª PUJOL  RIBERA 04:02:37
167 45 CARLOS BERNABE VAQUERO 04:03:18
168 50 DAVID JIMENEZ RICO 04:03:28
169 32 JOAN MARC  ALBETS COLILLES 04:04:50
170 84 GERARD FIGULS GRAUVILARDELL 04:04:54
171 33 NANDO  PADRÓS 04:04:57
172 107 JUAN ANTONIO  CAZORLA ZAMBRANA 04:05:20
173 230 04:05:59
174 89 MARC RIPOLL GÓMEZ 04:08:29
175 141 JAVI VALERA MONFORT 04:12:15
176 59 ADRIÀ  AZNAR DE TENA 04:12:34
177 46 ORIOL ESCALA DURAN 04:12:48
178 103 ISABEL HUBER RUANO 04:13:00
179 104 HUMBERT PLANTADA 04:13:02
180 219 JORDI  GILBERT BARBA 04:15:16
181 5 TONI GARCIA ALES 04:15:28
182 222 ANDREU SOLER 04:15:54
183 121 MARIE-EVE  BEAULIEU 04:16:16
184 127 ANTONIO SORIA RUIZ 04:17:00
185 177 ESTHER  BUENO GONZALEZ 04:19:42
186 176 JAUME DELIS RAMOS 04:19:51
187 204 FELIX NOGUERA CARRILLO 04:20:26
188 91 JAVIER APARICIO FERRAS 04:21:22
189 171 MIREIA  FORADADA I VILLAR 04:22:28
190 131 JUAN CARLOS JIMENEZ AREAN 04:23:40
191 159 FERNANDO IGLESIAS BARRENO 04:24:49
192 155 RAÚL IGLESIAS GARCIMARTÍN 04:24:54
193 57 JORGE CASTRO MORAL 04:24:56
194 114 JORDI LUZ FOGLIETTI 04:31:18
195 122 MIGUEL ORDÓÑEZ SÁNCHEZ 04:33:39
196 125 FRAN GUTIÉRREZ MAICAS 04:33:41
197 96 POL ANDREU AULADELL 04:35:34
198 40 EDU  GARCIA GARCIA 04:36:01
199 212 MANUELA MARIA SANTOS LAMA 04:36:34
200 216 JUAN JOSÉ SANCHEZ GARCIA 04:38:36
201 213 RUBEN VADILLO LEBRERO 04:38:40
202 68 JOAN PALOU I PADILLA 04:40:13
203 85 EDUARD BALBOA GARCIA 05:07:48